Location: Montreal
(45.5000°N, 73.5833°W)
Time: 14:24:59
(UTC-04:00)

BlueWalker 3 - Visible Passes

Search period start: 10 June 2023 00:00
Search period end: 20 June 2023 00:00
Orbit: 493 x 513 km, 53.2° (Epoch: 09 June)

Date Brightness Start Highest point End Pass type
(mag) Time Alt. Az. Time Alt. Az. Time Alt. Az.
10 Jun 4.6 01:01:21 10° W 01:01:25 10° W 01:01:25 10° W visible
10 Jun 3.6 21:22:54 10° NW 21:26:21 30° NNE 21:29:49 10° ENE visible
10 Jun 1.8 23:01:22 10° WNW 23:05:14 89° SSW 23:06:41 37° SE visible
11 Jun 4.5 00:40:57 10° W 00:41:21 11° W 00:41:21 11° W visible
11 Jun 1.8 22:40:54 10° WNW 22:44:46 87° SW 22:46:39 29° SE visible
12 Jun 4.3 00:20:31 10° W 00:21:19 13° WSW 00:21:19 13° WSW visible
12 Jun 1.9 22:20:25 10° WNW 22:24:16 86° SSW 22:26:40 22° SE visible
13 Jun 4.2 00:00:06 10° W 00:01:20 14° WSW 00:01:20 14° WSW visible
13 Jun 1.9 21:59:55 10° WNW 22:03:46 84° SW 22:06:43 17° SE visible
13 Jun 4.1 23:39:40 10° W 23:41:23 14° WSW 23:41:23 14° WSW visible
14 Jun 1.9 21:39:24 10° WNW 21:43:16 82° SSW 21:46:48 12° SE visible
14 Jun 4.1 23:19:14 10° W 23:21:15 14° SW 23:21:28 14° SW visible
15 Jun 2.0 21:18:53 10° WNW 21:22:45 80° SW 21:26:36 10° SE visible
15 Jun 4.1 22:58:47 10° W 23:00:43 13° SW 23:01:36 13° SW visible
16 Jun 4.3 22:38:19 10° W 22:40:10 13° SW 22:41:47 11° SSW visible
17 Jun 4.3 22:17:52 10° W 22:19:36 13° SW 22:21:21 10° SSW visible
18 Jun 4.4 21:57:24 10° WSW 21:59:03 12° SW 22:00:41 10° SSW visible
19 Jun 4.5 21:36:56 10° WSW 21:38:28 12° SW 21:39:59 10° SSW visible
